Location: *
(50.8160°S, 176.0219°W)
Time: 02:47:02
(UTC+00:00)

Cosmos 2219 Rocket - Pass Details

Date: 19 May 2026
Orbit: 825 x 846 km, 71.0° (Epoch: 8 June)

Event Time Altitude Azimuth Distance (km) Brightness Sun altitude
Exits shadow 18:14:25 - 207° (SSW) 3,182 4.8 -10.2°
Reaches altitude 10° 18:17:09 10° 188° (S) 2,480 4.4 -9.8°
Maximum altitude 18:20:33 16° 152° (SSE) 2,085 4.4 -9.2°
Drops below altitude 10° 18:23:55 10° 115° (ESE) 2,464 5.3 -8.8°
Sets 18:27:24 0° 93° (E) 3,389 6.7 -8.2°
